GBIXH EGHQ-EGHH

Flight info

Callsign GBIXH
Flight time 1h 20m
Altitude 2500
Route BHD/SANDBANKS VRP
Aircraft P28A/L-S/C

Departure

Time 2026-05-05 18:18
Airport Cornwall Airport Newquay (EGHQ)

Arrival

Time 2026-05-05 19:38
Airport Bournemouth Airport (EGHH)
Time Latitude Longitude Altitude Speed Heading
2026-05-05 17:38 50.44445 -4.99697 368 ft 0 kts 156°
2026-05-05 18:02 50.44440 -4.99697 368 ft 3 kts 196°
2026-05-05 18:02 50.44418 -4.99740 368 ft 5 kts 239°
2026-05-05 18:02 50.44395 -4.99787 368 ft 5 kts 216°
2026-05-05 18:02 50.44364 -4.99753 368 ft 7 kts 122°
2026-05-05 18:03 50.44335 -4.99683 368 ft 8 kts 119°
2026-05-05 18:03 50.44302 -4.99596 368 ft 9 kts 121°
2026-05-05 18:03 50.44262 -4.99518 368 ft 9 kts 159°
2026-05-05 18:03 50.44203 -4.99500 368 ft 8 kts 159°
2026-05-05 18:04 50.44165 -4.99493 368 ft 0 kts 178°
2026-05-05 18:12 50.44162 -4.99493 368 ft 2 kts 175°
2026-05-05 18:15 50.44161 -4.99493 368 ft 0 kts 174°
2026-05-05 18:15 50.44133 -4.99496 368 ft 6 kts 184°
2026-05-05 18:15 50.44086 -4.99533 368 ft 10 kts 255°
2026-05-05 18:16 50.44091 -4.99574 368 ft 0 kts 302°
2026-05-05 18:17 50.44093 -4.99578 368 ft 6 kts 303°
2026-05-05 18:17 50.44214 -4.99871 368 ft 56 kts 305°
2026-05-05 18:17 50.44439 -5.00526 457 ft 72 kts 299°
2026-05-05 18:17 50.44675 -5.01249 636 ft 73 kts 306°
2026-05-05 18:18 50.45058 -5.01626 841 ft 68 kts 355°
2026-05-05 18:18 50.45510 -5.01408 1019 ft 73 kts 20°
2026-05-05 18:18 50.45967 -5.01089 1232 ft 73 kts 22°
2026-05-05 18:18 50.46344 -5.00581 1449 ft 74 kts 51°
2026-05-05 18:19 50.46454 -4.99735 1571 ft 89 kts 85°
2026-05-05 18:19 50.46365 -4.98732 1705 ft 93 kts 89°
2026-05-05 18:19 50.46259 -4.97759 1913 ft 87 kts 89°
2026-05-05 18:19 50.46151 -4.96866 2111 ft 84 kts 88°
2026-05-05 18:20 50.46034 -4.95966 2271 ft 88 kts 102°
2026-05-05 18:20 50.45649 -4.95134 2378 ft 102 kts 123°
2026-05-05 18:20 50.45067 -4.94254 2281 ft 126 kts 132°
2026-05-05 18:20 50.44459 -4.93386 2469 ft 114 kts 135°
2026-05-05 18:21 50.43841 -4.92593 2492 ft 119 kts 133°
2026-05-05 18:21 50.43188 -4.91702 2415 ft 130 kts 132°
2026-05-05 18:21 50.42505 -4.90730 2309 ft 137 kts 133°
2026-05-05 18:21 50.41809 -4.89677 2042 ft 140 kts 131°
2026-05-05 18:22 50.41101 -4.88621 1872 ft 134 kts 133°
2026-05-05 18:22 50.40469 -4.87673 1857 ft 123 kts 131°
2026-05-05 18:22 50.39872 -4.86705 1774 ft 121 kts 129°
2026-05-05 18:22 50.39266 -4.85823 1770 ft 118 kts 141°
2026-05-05 18:23 50.38573 -4.85150 1780 ft 114 kts 144°
2026-05-05 18:23 50.37865 -4.84507 1584 ft 129 kts 147°
2026-05-05 18:23 50.37063 -4.83942 1664 ft 112 kts 162°
2026-05-05 18:23 50.36320 -4.83671 1678 ft 110 kts 171°
2026-05-05 18:24 50.35528 -4.83573 1565 ft 117 kts 175°
2026-05-05 18:24 50.34724 -4.83602 1562 ft 115 kts 184°
2026-05-05 18:24 50.33895 -4.83585 1459 ft 118 kts 170°
2026-05-05 18:24 50.33223 -4.83078 1527 ft 108 kts 131°
2026-05-05 18:25 50.32778 -4.82165 1565 ft 105 kts 108°
2026-05-05 18:25 50.32605 -4.81452 1556 ft 108 kts 97°
2026-05-05 18:25 50.32296 -4.79916 1561 ft 111 kts 104°
2026-05-05 18:25 50.32025 -4.78796 1590 ft 111 kts 105°
2026-05-05 18:26 50.31781 -4.77629 1612 ft 109 kts 98°
2026-05-05 18:26 50.31570 -4.76457 1584 ft 113 kts 98°
2026-05-05 18:26 50.31345 -4.75280 1586 ft 114 kts 101°
2026-05-05 18:26 50.31097 -4.73993 1312 ft 134 kts 106°
2026-05-05 18:27 50.30787 -4.72692 1430 ft 112 kts 101°
2026-05-05 18:27 50.30631 -4.71596 1556 ft 102 kts 90°
2026-05-05 18:27 50.30591 -4.70445 1490 ft 107 kts 79°
2026-05-05 18:27 50.30669 -4.69307 1500 ft 104 kts 69°
2026-05-05 18:28 50.30846 -4.67062 1555 ft 102 kts 75°
2026-05-05 18:28 50.30878 -4.65950 1602 ft 101 kts 78°
2026-05-05 18:28 50.30944 -4.64874 1638 ft 98 kts 71°
2026-05-05 18:29 50.31103 -4.63848 1692 ft 96 kts 67°
2026-05-05 18:29 50.31081 -4.62751 1674 ft 106 kts 88°
2026-05-05 18:29 50.30962 -4.61612 1698 ft 106 kts 89°
2026-05-05 18:29 50.30845 -4.60480 1720 ft 105 kts 89°
2026-05-05 18:30 50.30727 -4.59360 1742 ft 105 kts 89°
2026-05-05 18:30 50.30607 -4.58206 1772 ft 109 kts 89°
2026-05-05 18:30 50.30482 -4.57027 1799 ft 112 kts 89°
2026-05-05 18:30 50.30356 -4.55805 1828 ft 113 kts 89°
2026-05-05 18:31 50.30230 -4.54587 1853 ft 114 kts 89°
2026-05-05 18:31 50.30104 -4.53357 1877 ft 115 kts 89°
2026-05-05 18:31 50.29982 -4.52128 1890 ft 115 kts 89°
2026-05-05 18:31 50.29864 -4.50914 1982 ft 110 kts 89°
2026-05-05 18:32 50.29749 -4.49702 1983 ft 114 kts 89°
2026-05-05 18:32 50.29636 -4.48466 1985 ft 116 kts 89°
2026-05-05 18:32 50.29527 -4.47208 1987 ft 116 kts 86°
2026-05-05 18:32 50.29509 -4.45952 1990 ft 115 kts 78°
2026-05-05 18:33 50.29559 -4.44706 1990 ft 116 kts 79°
2026-05-05 18:33 50.29588 -4.43450 1989 ft 116 kts 79°
2026-05-05 18:33 50.29619 -4.42177 1990 ft 116 kts 79°
2026-05-05 18:33 50.29653 -4.40918 1990 ft 116 kts 79°
2026-05-05 18:34 50.29687 -4.39663 1991 ft 116 kts 79°
2026-05-05 18:34 50.29720 -4.38394 1990 ft 116 kts 79°
2026-05-05 18:34 50.29753 -4.37138 1990 ft 116 kts 79°
2026-05-05 18:34 50.29788 -4.35878 1990 ft 116 kts 79°
2026-05-05 18:35 50.29822 -4.34625 1989 ft 116 kts 80°
2026-05-05 18:35 50.29860 -4.33361 1990 ft 116 kts 79°
2026-05-05 18:35 50.29899 -4.32107 1990 ft 116 kts 79°
2026-05-05 18:35 50.29936 -4.30847 1992 ft 116 kts 79°
2026-05-05 18:36 50.29970 -4.29571 1991 ft 116 kts 80°
2026-05-05 18:36 50.30004 -4.28306 1996 ft 116 kts 79°
2026-05-05 18:36 50.30029 -4.27116 2142 ft 105 kts 79°
2026-05-05 18:36 50.30051 -4.26015 2287 ft 97 kts 75°
2026-05-05 18:37 50.30224 -4.25053 2439 ft 88 kts 61°
2026-05-05 18:37 50.30424 -4.24171 2584 ft 84 kts 61°
2026-05-05 18:37 50.30613 -4.23335 2729 ft 80 kts 60°
2026-05-05 18:37 50.30793 -4.22529 2874 ft 78 kts 61°
2026-05-05 18:38 50.31000 -4.21779 3024 ft 71 kts 42°
2026-05-05 18:38 50.31371 -4.21245 3042 ft 83 kts 34°
2026-05-05 18:38 50.31883 -4.20598 2908 ft 103 kts 34°
2026-05-05 18:38 50.32477 -4.19870 2764 ft 114 kts 35°
2026-05-05 18:39 50.33118 -4.19089 2663 ft 118 kts 35°
2026-05-05 18:39 50.33777 -4.18288 2561 ft 119 kts 35°
2026-05-05 18:39 50.34419 -4.17504 2532 ft 115 kts 35°
2026-05-05 18:39 50.35040 -4.16742 2526 ft 111 kts 35°
2026-05-05 18:40 50.35644 -4.16001 2527 ft 110 kts 34°
2026-05-05 18:40 50.36240 -4.15271 2524 ft 109 kts 34°
2026-05-05 18:40 50.36839 -4.14542 2520 ft 108 kts 34°
2026-05-05 18:40 50.37433 -4.13819 2518 ft 108 kts 34°
2026-05-05 18:41 50.38029 -4.13095 2516 ft 108 kts 34°
2026-05-05 18:41 50.38618 -4.12374 2516 ft 107 kts 34°
2026-05-05 18:41 50.39211 -4.11648 2514 ft 108 kts 34°
2026-05-05 18:41 50.39795 -4.10932 2516 ft 108 kts 34°
2026-05-05 18:42 50.40309 -4.10051 2499 ft 112 kts 59°
2026-05-05 18:42 50.40515 -4.08865 2497 ft 114 kts 71°
2026-05-05 18:42 50.40691 -4.07653 2500 ft 114 kts 70°
2026-05-05 18:42 50.40865 -4.06432 2498 ft 114 kts 70°
2026-05-05 18:43 50.41032 -4.05227 2488 ft 114 kts 73°
2026-05-05 18:43 50.41082 -4.03962 2479 ft 116 kts 82°
2026-05-05 18:43 50.41101 -4.02686 2472 ft 116 kts 82°
2026-05-05 18:43 50.41122 -4.01438 2465 ft 116 kts 82°
2026-05-05 18:44 50.41144 -4.00163 2468 ft 116 kts 82°
2026-05-05 18:44 50.41165 -3.98908 2460 ft 115 kts 82°
2026-05-05 18:44 50.41188 -3.97654 2462 ft 115 kts 81°
2026-05-05 18:44 50.41213 -3.96407 2460 ft 115 kts 81°
2026-05-05 18:45 50.41237 -3.95147 2455 ft 116 kts 82°
2026-05-05 18:45 50.41259 -3.93883 2450 ft 116 kts 81°
2026-05-05 18:45 50.41282 -3.92624 2451 ft 116 kts 81°
2026-05-05 18:45 50.41301 -3.91359 2442 ft 116 kts 81°
2026-05-05 18:46 50.41318 -3.90088 2431 ft 116 kts 81°
2026-05-05 18:46 50.41334 -3.88828 2423 ft 116 kts 82°
2026-05-05 18:46 50.41351 -3.87573 2401 ft 116 kts 81°
2026-05-05 18:46 50.41366 -3.86304 2397 ft 116 kts 81°
2026-05-05 18:47 50.41383 -3.85015 2325 ft 120 kts 82°
2026-05-05 18:47 50.41404 -3.83694 2279 ft 121 kts 82°
2026-05-05 18:47 50.41428 -3.82396 2234 ft 121 kts 81°
2026-05-05 18:47 50.41451 -3.81065 2167 ft 122 kts 82°
2026-05-05 18:48 50.41471 -3.79751 2162 ft 116 kts 81°
2026-05-05 18:48 50.41487 -3.78510 2152 ft 112 kts 82°
2026-05-05 18:48 50.41498 -3.77292 2158 ft 110 kts 81°
2026-05-05 18:48 50.41504 -3.76110 2168 ft 109 kts 82°
2026-05-05 18:49 50.41507 -3.74933 2180 ft 108 kts 81°
2026-05-05 18:49 50.41507 -3.73752 2191 ft 107 kts 81°
2026-05-05 18:49 50.41508 -3.72588 2191 ft 107 kts 81°
2026-05-05 18:49 50.41508 -3.71414 2187 ft 107 kts 82°
2026-05-05 18:50 50.41508 -3.70262 2184 ft 106 kts 82°
2026-05-05 18:50 50.41430 -3.69087 2176 ft 109 kts 91°
2026-05-05 18:50 50.41233 -3.67923 2166 ft 110 kts 97°
2026-05-05 18:50 50.41016 -3.66771 2173 ft 110 kts 97°
2026-05-05 18:51 50.40801 -3.65621 2199 ft 110 kts 97°
2026-05-05 18:51 50.40589 -3.64479 2207 ft 110 kts 97°
2026-05-05 18:51 50.40395 -3.63314 2209 ft 109 kts 94°
2026-05-05 18:51 50.40222 -3.62163 2206 ft 109 kts 94°
2026-05-05 18:52 50.40049 -3.60999 2201 ft 109 kts 94°
2026-05-05 18:52 50.39876 -3.59848 2195 ft 109 kts 94°
2026-05-05 18:52 50.39700 -3.58694 2183 ft 109 kts 94°
2026-05-05 18:52 50.39524 -3.57536 2177 ft 109 kts 94°
2026-05-05 18:53 50.39378 -3.56378 2174 ft 108 kts 90°
2026-05-05 18:53 50.39305 -3.55213 2177 ft 106 kts 84°
2026-05-05 18:53 50.39275 -3.54065 2179 ft 106 kts 83°
2026-05-05 18:53 50.39290 -3.52919 2182 ft 104 kts 77°
2026-05-05 18:54 50.39379 -3.51793 2180 ft 103 kts 74°
2026-05-05 18:54 50.39470 -3.50684 2185 ft 103 kts 74°
2026-05-05 18:54 50.39566 -3.49557 2185 ft 103 kts 74°
2026-05-05 18:54 50.39656 -3.48452 2185 ft 103 kts 74°
2026-05-05 18:55 50.39744 -3.47333 2184 ft 103 kts 74°
2026-05-05 18:55 50.39833 -3.46206 2182 ft 103 kts 74°
2026-05-05 18:55 50.39919 -3.45099 2182 ft 104 kts 74°
2026-05-05 18:55 50.40006 -3.43965 2182 ft 104 kts 74°
2026-05-05 18:56 50.40091 -3.42847 2182 ft 104 kts 74°
2026-05-05 18:56 50.40180 -3.41718 2181 ft 104 kts 75°
2026-05-05 18:56 50.40268 -3.40604 2179 ft 104 kts 74°
2026-05-05 18:56 50.40358 -3.39482 2180 ft 104 kts 74°
2026-05-05 18:57 50.40449 -3.38353 2180 ft 103 kts 74°
2026-05-05 18:57 50.40539 -3.37233 2179 ft 103 kts 74°
2026-05-05 18:57 50.40628 -3.36128 2178 ft 103 kts 74°
2026-05-05 18:57 50.40714 -3.35012 2178 ft 103 kts 74°
2026-05-05 18:58 50.40797 -3.33886 2178 ft 103 kts 75°
2026-05-05 18:58 50.40877 -3.32773 2178 ft 103 kts 75°
2026-05-05 18:58 50.40958 -3.31653 2180 ft 103 kts 75°
2026-05-05 18:58 50.41039 -3.30531 2179 ft 103 kts 75°
2026-05-05 18:59 50.41121 -3.29402 2180 ft 104 kts 75°
2026-05-05 18:59 50.41204 -3.28281 2180 ft 103 kts 75°
2026-05-05 18:59 50.41288 -3.27161 2178 ft 104 kts 75°
2026-05-05 18:59 50.41373 -3.26045 2179 ft 103 kts 75°
2026-05-05 19:00 50.41458 -3.24911 2179 ft 103 kts 75°
2026-05-05 19:00 50.41540 -3.23792 2179 ft 103 kts 75°
2026-05-05 19:00 50.41619 -3.22675 2179 ft 103 kts 75°
2026-05-05 19:00 50.41700 -3.21537 2131 ft 107 kts 75°
2026-05-05 19:01 50.41792 -3.20368 2058 ft 110 kts 75°
2026-05-05 19:01 50.41888 -3.19152 1984 ft 112 kts 75°
2026-05-05 19:01 50.41980 -3.17958 1969 ft 109 kts 75°
2026-05-05 19:01 50.42067 -3.16784 1968 ft 107 kts 75°
2026-05-05 19:02 50.42149 -3.15648 1966 ft 105 kts 75°
2026-05-05 19:02 50.42231 -3.14505 1965 ft 104 kts 75°
2026-05-05 19:02 50.42313 -3.13368 1965 ft 104 kts 75°
2026-05-05 19:02 50.42391 -3.12247 1964 ft 104 kts 75°
2026-05-05 19:03 50.42467 -3.11119 1964 ft 103 kts 75°
2026-05-05 19:03 50.42541 -3.10013 1964 ft 103 kts 75°
2026-05-05 19:03 50.42617 -3.08890 1963 ft 103 kts 75°
2026-05-05 19:03 50.42691 -3.07782 1963 ft 103 kts 75°
2026-05-05 19:04 50.42767 -3.06658 1964 ft 103 kts 75°
2026-05-05 19:04 50.42845 -3.05530 1967 ft 107 kts 75°
2026-05-05 19:04 50.42925 -3.04359 1965 ft 108 kts 75°
2026-05-05 19:04 50.43007 -3.03189 1967 ft 109 kts 75°
2026-05-05 19:05 50.43090 -3.02010 1967 ft 109 kts 75°
2026-05-05 19:05 50.43173 -3.00828 1969 ft 109 kts 75°
2026-05-05 19:05 50.43258 -2.99636 1970 ft 109 kts 75°
2026-05-05 19:05 50.43342 -2.98451 1968 ft 109 kts 75°
2026-05-05 19:06 50.43425 -2.97270 1968 ft 110 kts 75°
2026-05-05 19:06 50.43509 -2.96073 1967 ft 110 kts 75°
2026-05-05 19:06 50.43592 -2.94885 1967 ft 110 kts 75°
2026-05-05 19:06 50.43674 -2.93699 1967 ft 110 kts 75°
2026-05-05 19:07 50.43756 -2.92504 1965 ft 110 kts 75°
2026-05-05 19:07 50.43838 -2.91315 1963 ft 110 kts 75°
2026-05-05 19:07 50.43919 -2.90119 1964 ft 109 kts 75°
2026-05-05 19:07 50.43998 -2.88943 1964 ft 109 kts 75°
2026-05-05 19:08 50.44079 -2.87759 1963 ft 109 kts 75°
2026-05-05 19:08 50.44161 -2.86575 1961 ft 109 kts 75°
2026-05-05 19:08 50.44244 -2.85390 1962 ft 109 kts 75°
2026-05-05 19:08 50.44325 -2.84213 1960 ft 109 kts 75°
2026-05-05 19:09 50.44406 -2.83028 1960 ft 109 kts 75°
2026-05-05 19:09 50.44484 -2.81851 1957 ft 109 kts 75°
2026-05-05 19:09 50.44561 -2.80659 1939 ft 110 kts 75°
2026-05-05 19:09 50.44643 -2.79449 1908 ft 112 kts 75°
2026-05-05 19:10 50.44721 -2.78241 1916 ft 110 kts 75°
2026-05-05 19:10 50.44797 -2.77055 1925 ft 109 kts 75°
2026-05-05 19:10 50.44871 -2.75869 1914 ft 110 kts 75°
2026-05-05 19:10 50.44941 -2.74720 1967 ft 106 kts 75°
2026-05-05 19:11 50.45014 -2.73561 1964 ft 107 kts 75°
2026-05-05 19:11 50.45090 -2.72369 1920 ft 110 kts 75°
2026-05-05 19:11 50.45161 -2.71237 2008 ft 104 kts 75°
2026-05-05 19:11 50.45225 -2.70102 2055 ft 103 kts 75°
2026-05-05 19:12 50.45282 -2.69005 2113 ft 102 kts 75°
2026-05-05 19:12 50.45347 -2.67890 2115 ft 105 kts 75°
2026-05-05 19:12 50.45420 -2.66736 2116 ft 106 kts 73°
2026-05-05 19:12 50.45651 -2.65664 2118 ft 103 kts 59°
2026-05-05 19:13 50.45953 -2.64651 2119 ft 103 kts 56°
2026-05-05 19:13 50.46278 -2.63631 2120 ft 104 kts 56°
2026-05-05 19:13 50.46570 -2.62599 2120 ft 105 kts 59°
2026-05-05 19:13 50.46837 -2.61523 2118 ft 106 kts 63°
2026-05-05 19:14 50.47077 -2.60423 2118 ft 106 kts 63°
2026-05-05 19:14 50.47316 -2.59343 2116 ft 106 kts 63°
2026-05-05 19:14 50.47557 -2.58246 2114 ft 106 kts 63°
2026-05-05 19:14 50.47798 -2.57147 2112 ft 106 kts 63°
2026-05-05 19:15 50.48037 -2.56054 2111 ft 106 kts 62°
2026-05-05 19:15 50.48274 -2.54960 2111 ft 106 kts 63°
2026-05-05 19:15 50.48534 -2.53880 2111 ft 105 kts 60°
2026-05-05 19:15 50.48804 -2.52828 2113 ft 104 kts 60°
2026-05-05 19:16 50.49077 -2.51770 2111 ft 104 kts 59°
2026-05-05 19:16 50.49352 -2.50708 2110 ft 105 kts 59°
2026-05-05 19:16 50.49631 -2.49656 2112 ft 104 kts 57°
2026-05-05 19:16 50.49951 -2.48643 2112 ft 104 kts 56°
2026-05-05 19:17 50.50279 -2.47620 2112 ft 104 kts 56°
2026-05-05 19:17 50.50599 -2.46614 2110 ft 104 kts 56°
2026-05-05 19:17 50.50924 -2.45595 2110 ft 104 kts 56°
2026-05-05 19:17 50.51247 -2.44578 2108 ft 104 kts 55°
2026-05-05 19:18 50.51571 -2.43556 2106 ft 104 kts 55°
2026-05-05 19:18 50.51888 -2.42554 2105 ft 104 kts 55°
2026-05-05 19:18 50.52209 -2.41534 2102 ft 103 kts 56°
2026-05-05 19:18 50.52529 -2.40517 2098 ft 103 kts 56°
2026-05-05 19:19 50.52846 -2.39511 2097 ft 103 kts 56°
2026-05-05 19:19 50.53168 -2.38493 2087 ft 104 kts 56°
2026-05-05 19:19 50.53507 -2.37435 1986 ft 110 kts 56°
2026-05-05 19:19 50.53860 -2.36345 1886 ft 113 kts 56°
2026-05-05 19:20 50.54211 -2.35254 1862 ft 110 kts 56°
2026-05-05 19:20 50.54543 -2.34207 1859 ft 107 kts 56°
2026-05-05 19:20 50.54873 -2.33151 1858 ft 105 kts 56°
2026-05-05 19:20 50.55193 -2.32124 1856 ft 104 kts 56°
2026-05-05 19:21 50.55511 -2.31095 1857 ft 104 kts 56°
2026-05-05 19:21 50.55824 -2.30081 1852 ft 103 kts 56°
2026-05-05 19:21 50.56139 -2.29072 1850 ft 102 kts 55°
2026-05-05 19:21 50.56448 -2.28064 1849 ft 102 kts 55°
2026-05-05 19:22 50.56754 -2.27065 1846 ft 101 kts 55°
2026-05-05 19:22 50.57059 -2.26069 1842 ft 101 kts 55°
2026-05-05 19:22 50.57367 -2.25065 1839 ft 101 kts 55°
2026-05-05 19:22 50.57668 -2.24081 1838 ft 101 kts 55°
2026-05-05 19:23 50.57973 -2.23078 1836 ft 101 kts 55°
2026-05-05 19:23 50.58275 -2.22084 1832 ft 101 kts 55°
2026-05-05 19:23 50.58581 -2.21078 1829 ft 101 kts 55°
2026-05-05 19:23 50.58886 -2.20077 1825 ft 101 kts 55°
2026-05-05 19:24 50.59187 -2.19085 1817 ft 101 kts 55°
2026-05-05 19:24 50.59497 -2.18074 1809 ft 101 kts 55°
2026-05-05 19:24 50.59798 -2.17079 1799 ft 101 kts 54°
2026-05-05 19:24 50.60100 -2.16078 1816 ft 101 kts 55°
2026-05-05 19:25 50.60397 -2.15085 1817 ft 100 kts 55°
2026-05-05 19:25 50.60700 -2.14082 1813 ft 101 kts 56°
2026-05-05 19:25 50.61006 -2.13086 1797 ft 101 kts 55°
2026-05-05 19:25 50.61309 -2.12098 1774 ft 101 kts 55°
2026-05-05 19:26 50.61617 -2.11104 1749 ft 101 kts 55°
2026-05-05 19:26 50.61926 -2.10112 1751 ft 101 kts 55°
2026-05-05 19:26 50.62234 -2.09117 1780 ft 101 kts 54°
2026-05-05 19:26 50.62543 -2.08113 1800 ft 102 kts 54°
2026-05-05 19:27 50.62845 -2.07109 1813 ft 101 kts 55°
2026-05-05 19:27 50.63145 -2.06097 1808 ft 102 kts 56°
2026-05-05 19:27 50.63448 -2.05093 1846 ft 97 kts 53°
2026-05-05 19:27 50.63748 -2.04308 1868 ft 74 kts 47°
2026-05-05 19:28 50.64006 -2.03769 1897 ft 57 kts 36°
2026-05-05 19:28 50.64266 -2.03261 1820 ft 61 kts 43°
2026-05-05 19:28 50.64516 -2.02648 1707 ft 67 kts 49°
2026-05-05 19:28 50.64757 -2.02033 1629 ft 66 kts 49°
2026-05-05 19:29 50.65008 -2.01436 1576 ft 64 kts 45°
2026-05-05 19:29 50.65288 -2.00817 1499 ft 72 kts 43°
2026-05-05 19:29 50.65596 -2.00158 1447 ft 75 kts 45°
2026-05-05 19:29 50.65931 -1.99507 1421 ft 75 kts 44°
2026-05-05 19:30 50.66256 -1.98847 1388 ft 77 kts 44°
2026-05-05 19:30 50.66578 -1.98154 1351 ft 80 kts 44°
2026-05-05 19:30 50.66920 -1.97468 1351 ft 76 kts 39°
2026-05-05 19:30 50.67267 -1.96844 1355 ft 74 kts 42°
2026-05-05 19:31 50.67622 -1.96286 1375 ft 69 kts 29°
2026-05-05 19:31 50.68053 -1.95954 1386 ft 68 kts 18°
2026-05-05 19:31 50.68474 -1.95659 1420 ft 65 kts 19°
2026-05-05 19:31 50.68901 -1.95468 1431 ft 64 kts 11°
2026-05-05 19:32 50.69333 -1.95312 1439 ft 65 kts 10°
2026-05-05 19:32 50.69805 -1.95165 1408 ft 70 kts 11°
2026-05-05 19:32 50.70282 -1.95024 1443 ft 67 kts
2026-05-05 19:32 50.70740 -1.94987 1445 ft 68 kts
2026-05-05 19:33 50.71227 -1.94896 1429 ft 71 kts
2026-05-05 19:33 50.71695 -1.94799 1462 ft 68 kts 11°
2026-05-05 19:33 50.72139 -1.94601 1449 ft 69 kts 15°
2026-05-05 19:33 50.72597 -1.94327 1423 ft 72 kts 18°
2026-05-05 19:34 50.73056 -1.94005 1400 ft 73 kts 22°
2026-05-05 19:34 50.73486 -1.93583 1421 ft 71 kts 35°
2026-05-05 19:34 50.73862 -1.93151 1444 ft 69 kts 27°
2026-05-05 19:35 50.74825 -1.92445 1295 ft 81 kts 18°
2026-05-05 19:35 50.75302 -1.92181 1242 ft 64 kts 18°
2026-05-05 19:35 50.75711 -1.91967 1143 ft 62 kts 17°
2026-05-05 19:35 50.76112 -1.91723 1010 ft 62 kts 22°
2026-05-05 19:36 50.76492 -1.91340 823 ft 69 kts 34°
2026-05-05 19:36 50.76822 -1.90773 655 ft 72 kts 53°
2026-05-05 19:36 50.76982 -1.90046 569 ft 66 kts 68°
2026-05-05 19:36 50.77097 -1.89347 437 ft 66 kts 68°
2026-05-05 19:37 50.77221 -1.88657 355 ft 62 kts 65°
2026-05-05 19:37 50.77351 -1.87993 265 ft 64 kts 66°
2026-05-05 19:37 50.77491 -1.87330 195 ft 63 kts 66°
2026-05-05 19:37 50.77604 -1.86660 123 ft 62 kts 68°
2026-05-05 19:38 50.77715 -1.86004 67 ft 60 kts 69°
2026-05-05 19:38 50.77811 -1.85369 37 ft 59 kts 71°
2026-05-05 19:38 50.77924 -1.84768 37 ft 52 kts 77°
2026-05-05 19:38 50.78013 -1.84305 37 ft 34 kts 77°
2026-05-05 19:39 50.78052 -1.84052 37 ft 19 kts 75°
2026-05-05 19:39 50.78131 -1.83938 37 ft 13 kts 333°
2026-05-05 19:39 50.78140 -1.83943 37 ft 0 kts 352°
2026-05-05 19:39 50.78183 -1.83958 37 ft 12 kts 346°
2026-05-05 19:40 50.78303 -1.84006 37 ft 19 kts 339°
2026-05-05 19:40 50.78318 -1.84013 37 ft 0 kts 348°
2026-05-05 19:40 50.78322 -1.84015 37 ft 3 kts 342°
2026-05-05 19:40 50.78361 -1.84031 37 ft 6 kts 345°
2026-05-05 19:41 50.78411 -1.84048 37 ft 8 kts 348°
2026-05-05 19:41 50.78429 -1.84056 37 ft 0 kts 335°
2026-05-05 19:41 50.78433 -1.84058 37 ft 1 kts 342°
2026-05-05 19:41 50.78455 -1.84066 37 ft 6 kts 358°
2026-05-05 19:42 50.78520 -1.84091 37 ft 11 kts 338°
2026-05-05 19:42 50.78601 -1.84148 37 ft 13 kts 332°
2026-05-05 19:42 50.78675 -1.84232 37 ft 13 kts 284°
2026-05-05 19:42 50.78665 -1.84304 37 ft 0 kts 244°
2026-05-05 19:43 50.78667 -1.84325 37 ft 3 kts 294°
2026-05-05 19:43 50.78677 -1.84313 37 ft 6 kts 71°
2026-05-05 19:43 50.78722 -1.84201 37 ft 13 kts
2026-05-05 19:43 50.78799 -1.84230 37 ft 10 kts 341°
2026-05-05 19:44 50.78819 -1.84325 37 ft 11 kts 226°
2026-05-05 19:44 50.78790 -1.84421 37 ft 8 kts 260°
2026-05-05 19:44 50.78757 -1.84469 37 ft 6 kts 167°
2026-05-05 19:44 50.78716 -1.84461 37 ft 5 kts 179°
2026-05-05 19:45 50.78679 -1.84455 37 ft 6 kts 172°
2026-05-05 19:45 50.78627 -1.84443 37 ft 8 kts 179°
2026-05-05 19:45 50.78587 -1.84483 37 ft 6 kts 238°
2026-05-05 19:45 50.78574 -1.84483 37 ft 0 kts 85°